Location: Torrington
(42.0650°N, 104.1810°W)
Time: 20:15:06
(UTC-06:00)

Amateur Radio Satellites - All Passes

Search period start: 22 October 2014 19:45
Search period end: 23 October 2014 19:45
Location: Torrington, 42.0650°N, 104.1810°W

Satellite Date Start Highest point End Downlink Frequencies (MHz)
Time Altitude Azimuth
JAS-2 22 Oct 19:45:09 19:45:39 10° 278° (W) 19:46:09 435.800 - 435.900 CW/SSB, 435.910 FM
KITSAT 1 22 Oct 19:53:24 19:59:31 23° 33° (NNE) 20:05:35 435.175 FM
HO-68 22 Oct 20:37:11 20:44:13 63° 69° (ENE) 20:51:17 435.675 MHz FM
UKube-1 22 Oct 20:45:12 20:48:24 20° 65° (ENE) 20:51:36 145.840 MHz, 145.915 MHz
ISS 22 Oct 20:50:26 20:53:32 36° 222° (SW) 20:56:36 145.800 FM
RS-15 22 Oct 20:52:44 20:58:50 17° 98° (E) 21:04:51 29.354 - 29.394 USB, Beacon 29.352 USB
FUNcube-1 22 Oct 21:20:46 21:23:58 19° 65° (ENE) 21:27:09 145.950 - 145.970 MHz USB
SO-50 22 Oct 21:24:07 21:28:11 26° 44° (NE) 21:32:16 436.795 FM
STRAND 1 22 Oct 21:25:13 21:28:27 17° 299° (WNW) 21:31:39 ?
Oscar 11 22 Oct 21:27:42 21:31:51 47° 72° (ENE) 21:36:01 145.825 FM, Beacon 2401.500 USB
KITSAT 1 22 Oct 21:48:15 21:56:22 75° 57° (ENE) 22:04:26 435.175 FM
ZACube-1 22 Oct 22:10:06 22:14:38 60° 74° (ENE) 22:19:07 437.345 MHz
UKube-1 22 Oct 22:20:15 22:24:19 39° 261° (W) 22:28:25 145.840 MHz, 145.915 MHz
HO-68 22 Oct 22:26:41 22:32:22 25° 267° (W) 22:38:06 435.675 MHz FM
FUNcube-1 22 Oct 22:55:35 23:00:00 46° 261° (W) 23:04:24 145.950 - 145.970 MHz USB
RS-15 22 Oct 22:58:13 23:09:11 77° 118° (ESE) 23:20:05 29.354 - 29.394 USB, Beacon 29.352 USB
UOSAT-12 22 Oct 23:00:19 23:04:03 23° 42° (NE) 23:07:45 437.025 FM, 437.400 FM
SO-50 22 Oct 23:04:18 23:08:58 48° 242° (WSW) 23:13:39 436.795 FM
Oscar 11 22 Oct 23:05:41 23:08:17 16° 268° (W) 23:10:53 145.825 FM, Beacon 2401.500 USB
KITSAT 1 22 Oct 23:44:50 23:50:58 25° 256° (WSW) 23:57:06 435.175 FM
ZACube-1 22 Oct 23:49:00 23:51:22 14° 270° (W) 23:53:44 437.345 MHz
MaSat-1 23 Oct 00:05:05 00:09:04 41° 112° (ESE) 00:12:43 437.345 MHz
UOSAT-12 23 Oct 00:39:55 00:44:32 55° 241° (WSW) 00:49:03 437.025 FM, 437.400 FM
Oscar 16 23 Oct 01:08:09 01:09:39 11° 88° (E) 01:11:09 437.025 USB, Beacon 2401.1428
JAS-1B 23 Oct 01:08:35 01:12:15 15° 91° (E) 01:16:11 435.800 - 435.900 CW/SSB
RS-15 23 Oct 01:12:41 01:22:35 37° 324° (NW) 01:32:35 29.354 - 29.394 USB, Beacon 29.352 USB
MaSat-1 23 Oct 01:41:57 01:44:52 19° 305° (NW) 01:47:36 437.345 MHz
Oscar 10/S400 23 Oct 01:51:43 02:44:48 17° 245° (WSW) 04:31:24 145.825 - 145.975 CW/USB, Beacon 145.810 USB
Oscar 19 23 Oct 01:59:21 02:04:04 36° 97° (E) 02:08:44 437.125 CW, 437.150 USB
AO-27 23 Oct 02:12:32 02:16:20 20° 93° (E) 02:20:07 436.795 MHz FM
Oscar 16 23 Oct 02:44:30 02:49:39 84° 285° (WNW) 02:54:46 437.025 USB, Beacon 2401.1428
AO-Echo 23 Oct 02:55:52 03:01:11 67° 102° (ESE) 03:06:28 ?
JAS-1B 23 Oct 02:56:49 03:03:23 88° 105° (ESE) 03:11:14 435.800 - 435.900 CW/SSB
Uribyol 2 23 Oct 03:00:22 03:05:31 58° 101° (E) 03:10:38 436.500 FM
ITAMSAT 1 23 Oct 03:05:50 03:11:02 62° 101° (ESE) 03:16:11 435.822 SSB
PCSat 23 Oct 03:07:19 03:09:34 13° 102° (ESE) 03:11:49 145.825 MHz
Gurwin Techsat 1B 23 Oct 03:13:52 03:18:50 39° 98° (E) 03:23:47 435.225 FM
TMSAT-1 23 Oct 03:26:28 03:31:24 38° 97° (E) 03:36:17 436.925 FM
AO-7 23 Oct 03:30:36 03:33:52 13° 87° (E) 03:37:08 29.400 - 29.500 MHz
RS-15 23 Oct 03:31:27 03:39:21 22° 358° (N) 03:47:23 29.354 - 29.394 USB, Beacon 29.352 USB
Oscar 19 23 Oct 03:38:56 03:43:16 28° 294° (WNW) 03:47:34 437.125 CW, 437.150 USB
OPAL 23 Oct 03:43:36 03:46:26 15° 58° (ENE) 03:49:15 ?
AO-27 23 Oct 03:51:04 03:56:08 52° 289° (WNW) 04:01:10 436.795 MHz FM
Sapphire 23 Oct 04:24:09 04:29:25 57° 115° (ESE) 04:34:44 437.095 MHz 1200 baud AX-25 AFSK
Oscar 16 23 Oct 04:26:32 04:28:10 12° 303° (WNW) 04:29:48 437.025 USB, Beacon 2401.1428
AO-Echo 23 Oct 04:35:58 04:39:23 18° 299° (WNW) 04:42:48 ?
Uosat F 23 Oct 04:39:38 04:43:53 26° 95° (E) 04:48:06 435.120 FM
Uribyol 2 23 Oct 04:40:56 04:44:32 19° 298° (WNW) 04:48:07 436.500 FM
ITAMSAT 1 23 Oct 04:46:32 04:50:01 18° 299° (WNW) 04:53:30 435.822 SSB
PCSat 23 Oct 04:46:45 04:52:10 86° 299° (WNW) 04:57:38 145.825 MHz
JAS-1B 23 Oct 04:49:25 04:53:26 17° 301° (WNW) 04:57:49 435.800 - 435.900 CW/SSB
Gurwin Techsat 1B 23 Oct 04:54:10 04:58:37 28° 295° (WNW) 05:03:04 435.225 FM
JAS-2 23 Oct 05:02:37 05:07:58 20° 88° (E) 05:13:18 435.800 - 435.900 CW/SSB, 435.910 FM
TMSAT-1 23 Oct 05:06:40 05:11:09 29° 294° (WNW) 05:15:38 436.925 FM
OPAL 23 Oct 05:19:31 05:24:41 78° 255° (WSW) 05:29:49 ?
AO-7 23 Oct 05:19:43 05:28:02 71° 105° (ESE) 05:36:20 29.400 - 29.500 MHz
STRAND 1 23 Oct 05:25:12 05:27:38 14° 59° (ENE) 05:30:05 ?
Hamsat 23 Oct 05:32:59 05:33:58 11° 89° (E) 05:34:57 145.90 MHz
RS-15 23 Oct 05:46:34 05:56:24 34° 33° (NNE) 06:06:30 29.354 - 29.394 USB, Beacon 29.352 USB
Sapphire 23 Oct 06:08:50 06:13:12 24° 314° (NW) 06:17:37 437.095 MHz 1200 baud AX-25 AFSK
Uosat F 23 Oct 06:18:06 06:22:43 37° 292° (WNW) 06:27:19 435.120 FM
PCSat 23 Oct 06:32:59 06:36:24 17° 320° (NW) 06:39:51 145.825 MHz
JAS-2 23 Oct 06:45:57 06:53:43 87° 285° (WNW) 07:01:35 435.800 - 435.900 CW/SSB, 435.910 FM
STRAND 1 23 Oct 07:00:59 07:06:06 84° 256° (WSW) 07:11:17 ?
Hamsat 23 Oct 07:06:10 07:10:19 64° 285° (WNW) 07:14:29 145.90 MHz
AO-7 23 Oct 07:13:24 07:20:09 29° 305° (NW) 07:26:55 29.400 - 29.500 MHz
RS-15 23 Oct 07:59:00 08:10:13 87° 239° (WSW) 08:21:56 29.354 - 29.394 USB, Beacon 29.352 USB
SO-67 23 Oct 08:01:51 08:05:19 76° 102° (ESE) 08:08:45 435.3500 MHz FM
Saudisat 1A 23 Oct 08:04:25 08:08:39 52° 119° (ESE) 08:12:57 436.775 MHz
JAS-2 23 Oct 08:32:29 08:37:45 21° 303° (WNW) 08:43:06 435.800 - 435.900 CW/SSB, 435.910 FM
Saudisat 1A 23 Oct 09:45:09 09:48:31 21° 317° (NW) 09:51:54 436.775 MHz
MaSat-1 23 Oct 09:51:10 09:53:50 83° 69° (ENE) 09:56:16 437.345 MHz
HO-68 23 Oct 09:51:49 09:58:58 63° 103° (ESE) 10:06:04 435.675 MHz FM
PANSAT 23 Oct 09:52:28 09:53:16 11° 178° (S) 09:54:03 not established
ZACube-1 23 Oct 10:02:10 10:02:46 10° 88° (E) 10:03:22 437.345 MHz
UKube-1 23 Oct 10:07:53 10:11:50 33° 97° (E) 10:15:46 145.840 MHz, 145.915 MHz
RS-15 23 Oct 10:13:15 10:21:03 22° 259° (W) 10:29:05 29.354 - 29.394 USB, Beacon 29.352 USB
FUNcube-1 23 Oct 10:44:35 10:48:25 32° 96° (E) 10:52:10 145.950 - 145.970 MHz USB
Oscar 11 23 Oct 10:50:42 10:55:02 88° 284° (WNW) 10:59:20 145.825 FM, Beacon 2401.500 USB
Sapphire 23 Oct 11:30:44 11:32:12 11° 33° (NNE) 11:33:40 437.095 MHz 1200 baud AX-25 AFSK
ZACube-1 23 Oct 11:35:24 11:39:40 67° 285° (WNW) 11:43:49 437.345 MHz
HO-68 23 Oct 11:40:20 11:46:10 28° 301° (WNW) 11:51:59 435.675 MHz FM
UKube-1 23 Oct 11:44:23 11:47:52 24° 294° (WNW) 11:51:20 145.840 MHz, 145.915 MHz
PCSat 23 Oct 11:52:14 11:55:31 16° 40° (NE) 11:58:47 145.825 MHz
JAS-1B 23 Oct 11:58:58 12:00:10 11° 54° (NE) 12:01:23 435.800 - 435.900 CW/SSB
Oscar 10/S400 23 Oct 12:04:30 12:21:19 22° 150° (SSE) 12:34:56 145.825 - 145.975 CW/USB, Beacon 145.810 USB
KITSAT 1 23 Oct 12:16:48 12:24:27 49° 112° (ESE) 12:32:08 435.175 FM
FUNcube-1 23 Oct 12:21:18 12:24:38 22° 293° (WNW) 12:27:54 145.950 - 145.970 MHz USB
Oscar 16 23 Oct 12:24:33 12:28:09 20° 62° (ENE) 12:31:46 437.025 USB, Beacon 2401.1428
AO-Echo 23 Oct 12:34:42 12:36:14 11° 57° (ENE) 12:37:47 ?
Uribyol 2 23 Oct 12:42:52 12:45:08 13° 58° (ENE) 12:47:23 436.500 FM
ITAMSAT 1 23 Oct 12:48:14 12:50:43 14° 58° (ENE) 12:53:12 435.822 SSB
Sapphire 23 Oct 13:11:40 13:16:58 50° 55° (NE) 13:22:14 437.095 MHz 1200 baud AX-25 AFSK
Oscar 19 23 Oct 13:16:32 13:21:33 55° 72° (ENE) 13:26:34 437.125 CW, 437.150 USB
SO-50 23 Oct 13:19:23 13:23:43 51° 118° (ESE) 13:28:12 436.795 FM
AO-27 23 Oct 13:30:53 13:35:28 32° 67° (ENE) 13:40:04 436.795 MHz FM
ISS 23 Oct 13:32:21 13:35:37 57° 141° (SE) 13:38:54 145.800 FM
PCSat 23 Oct 13:34:21 13:39:48 82° 60° (ENE) 13:45:13 145.825 MHz
JAS-1B 23 Oct 13:43:55 13:49:57 78° 74° (ENE) 13:55:38 435.800 - 435.900 CW/SSB
Oscar 16 23 Oct 14:02:00 14:07:04 56° 259° (W) 14:12:09 437.025 USB, Beacon 2401.1428
AO-Echo 23 Oct 14:09:16 14:14:08 87° 76° (ENE) 14:19:12 ?
KITSAT 1 23 Oct 14:12:22 14:19:57 43° 312° (NW) 14:27:36 435.175 FM
Uribyol 2 23 Oct 14:18:36 14:23:49 90° 261° (W) 14:29:05 436.500 FM
ITAMSAT 1 23 Oct 14:24:15 14:29:28 85° 256° (WSW) 14:34:44 435.822 SSB
AO-7 23 Oct 14:29:21 14:35:24 23° 52° (NE) 14:41:27 29.400 - 29.500 MHz
Gurwin Techsat 1B 23 Oct 14:35:18 14:40:32 64° 73° (ENE) 14:45:48 435.225 FM
TMSAT-1 23 Oct 14:47:32 14:52:45 61° 72° (ENE) 14:57:59 436.925 FM
UOSAT-12 23 Oct 14:51:17 14:55:37 40° 116° (ESE) 15:00:01 437.025 FM, 437.400 FM
Sapphire 23 Oct 14:55:48 15:00:03 24° 253° (WSW) 15:04:17 437.095 MHz 1200 baud AX-25 AFSK
Oscar 19 23 Oct 14:57:42 15:01:13 18° 268° (W) 15:04:44 437.125 CW, 437.150 USB
SO-50 23 Oct 15:00:58 15:04:34 23° 317° (NW) 15:08:15 436.795 FM
ISS 23 Oct 15:09:36 15:12:30 26° 339° (NNW) 15:15:23 145.800 FM
AO-27 23 Oct 15:10:17 15:14:55 32° 264° (W) 15:19:36 436.795 MHz FM
PCSat 23 Oct 15:19:52 15:22:28 14° 257° (WSW) 15:25:04 145.825 MHz
JAS-1B 23 Oct 15:38:44 15:41:17 13° 270° (W) 15:43:47 435.800 - 435.900 CW/SSB
Uosat F 23 Oct 15:53:12 15:57:49 39° 69° (ENE) 16:02:29 435.120 FM
AO-Echo 23 Oct 15:53:20 15:53:38 10° 273° (W) 15:53:57 ?
Uribyol 2 23 Oct 16:02:53 16:03:59 11° 272° (W) 16:05:05 436.500 FM
KITSAT 1 23 Oct 16:13:22 16:17:52 16° 339° (NNW) 16:22:23 435.175 FM
Gurwin Techsat 1B 23 Oct 16:17:41 16:20:57 16° 269° (W) 16:24:13 435.225 FM
AO-7 23 Oct 16:18:55 16:27:12 87° 252° (WSW) 16:35:33 29.400 - 29.500 MHz
TMSAT-1 23 Oct 16:29:42 16:33:05 17° 269° (W) 16:36:29 436.925 FM
Saudisat 1A 23 Oct 16:30:36 16:34:54 47° 52° (NE) 16:39:10 436.775 MHz
UOSAT-12 23 Oct 16:31:52 16:35:53 28° 315° (NW) 16:39:57 437.025 FM, 437.400 FM
ISS 23 Oct 16:47:53 16:50:01 16° 359° (N) 16:52:10 145.800 FM
JAS-2 23 Oct 16:58:54 17:04:26 43° 66° (ENE) 17:10:40 435.800 - 435.900 CW/SSB, 435.910 FM
OPAL 23 Oct 17:29:40 17:33:45 25° 97° (E) 17:37:49 ?
Uosat F 23 Oct 17:32:36 17:36:42 25° 265° (W) 17:40:50 435.120 FM
Hamsat 23 Oct 17:59:30 18:03:43 87° 257° (WSW) 18:07:56 145.90 MHz
Saudisat 1A 23 Oct 18:10:59 18:14:07 19° 249° (WSW) 18:17:15 436.775 MHz
KITSAT 1 23 Oct 18:14:15 18:17:31 13° 11° (N) 18:20:47 435.175 FM
AO-7 23 Oct 18:16:01 18:21:04 17° 270° (W) 18:26:09 29.400 - 29.500 MHz
ISS 23 Oct 18:24:43 18:27:34 25° 20° (NNE) 18:30:24 145.800 FM
SO-67 23 Oct 18:35:09 18:38:00 25° 71° (ENE) 18:40:53 435.3500 MHz FM
JAS-2 23 Oct 18:44:33 18:49:40 31° 268° (W) 18:55:24 435.800 - 435.900 CW/SSB, 435.910 FM
OPAL 23 Oct 19:08:09 19:12:44 38° 294° (WNW) 19:17:16 ?
STRAND 1 23 Oct 19:11:32 19:16:09 32° 96° (E) 19:20:43 ?
